Notices

What's New in latest Release from April 7th, 2021:

- Updated Glossary, including Speed of Maximum Gust, and Total Hourly Precipitation

- Updated national and regional climate services offices contacts and prices information

- Addition of station inventory lists for 1981-2010, 1971-2000, and 1961-1990 Normals.

If you haven't already, please take our survey and provide feedback about our website: https://eccc.sondage-survey.ca/f/LanguageSelection.aspx?s=442ca660-fcf1-47c0-95a9-59707d6fd709

Hourly Data Report for January 02, 2020

SATURNA ISLAND CS
BRITISH COLUMBIA
Current Station Operator: ECCC - MSC

48°47'02.067" N
123°02'41.082" W
24.40 m
1017101
71473
WEZ

Download Data

Hourly Data (January 2020)
Hourly Data Report for January 2, 2020
TIME
LST
Temp Definition
°C
Dew Point Definition
°C
Rel Hum Definition
%
Precip. Amount Definition
mm

Wind Dir Definition
10's deg

Wind Spd Definition
km/h
Visibility Definition
km
Stn Press Definition
kPa
Hmdx Definition


Wind Chill Definition


Weather Definition


00:00 6.7 0.2 63 0.2 28 7   101.31     LegendNANA
01:00 6.2 1.2 70 0.0 29 4   101.37     LegendNANA
02:00 5.7 0.4 69 0.0 28 4   101.44     LegendNANA
03:00 5.8 0.5 69 0.0 28 4   101.53     LegendNANA
04:00 5.4 1.1 74 0.0 29 5   101.55     LegendNANA
05:00 5.6 1.3 74 0.0 27 4   101.53     LegendNANA
06:00 5.3 1.6 77 0.0 30 5   101.57     LegendNANA
07:00 5.5 1.3 74 0.0 28 1   101.58     LegendNANA
08:00 5.4 0.9 73 0.0 24 5   101.62     LegendNANA
09:00 5.8 1.6 74 0.0 22 11   101.67     LegendNANA
10:00 6.3 0.7 67 0.0 23 13   101.73     LegendNANA
11:00 6.4 0.5 66 0.0 20 17   101.66     LegendNANA
12:00 5.8 1.3 73 0.0 18 14   101.61     LegendNANA
13:00 4.9 2.4 84 0.4 15 13   101.51     LegendNANA
14:00 4.6 2.7 87 1.6 13 15   101.43     LegendNANA
15:00 5.1 3.6 90 0.6 14 23   101.33     LegendNANA
16:00 4.9 3.3 90 1.4 14 24   101.20     LegendNANA
17:00 4.7 3.1 89 0.2 13 31   101.12     LegendNANA
18:00 5.0 3.5 90 0.4 12 37   101.00     LegendNANA
19:00 5.2 4.0 92 0.2 11 27   100.92     LegendNANA
20:00 6.3 4.6 89 0.0 16 25   100.88     LegendNANA
21:00 7.1 5.7 91 0.0 17 37   100.81     LegendNANA
22:00 7.6 6.2 91 0.0 18 40   100.75     LegendNANA
23:00 7.8 6.7 92 0.4 18 40   100.77     LegendNANA

Notes on Data Quality.

Legend

  • E = Estimated
  • M = Missing
  • NA = Not Available*
  • [empty] = Indicates an unobserved value
Date modified: